ENGINEERING TRACK TESTING
Weather & Rail Temperature Monitoring
Weather station MONMOUTH
Midway Interlocking (Monmouth Jct. NJ)
Measurement History
![]() ENGINEERING TRACK TESTING Weather station MONMOUTH Midway Interlocking (Monmouth Jct. NJ) Measurement History ![]() |
Conditions for past 24 hours (since 09/01/2026 01:29 AM)
| Time | Track 3 S rail | Track 3 N rail | Track 2 S rail | Track 2 N rail | Outside Air Temperature |
Solar Radiation |
Max. Wind | Humidity | Air Pressure | Rain | |
| Speed | Dir | ||||||||||
| 09/02/2026 01:15 AM | 72 °F | 72 °F | 72 °F | 71 °F | 70.9 °F | 0 watt/m2 | 0 mph | --- | 94 % | 29.982 in Hg | 0 in |
| 09/02/2026 01:00 AM | 72 °F | 72 °F | 72 °F | 72 °F | 71.3 °F | 0 watt/m2 | 0 mph | --- | 93 % | 29.98 in Hg | 0 in |
| 09/02/2026 12:45 AM | 72 °F | 72 °F | 72 °F | 72 °F | 71.6 °F | 0 watt/m2 | 6 mph | ESE | 93 % | 29.969 in Hg | 0 in |
| 09/02/2026 12:30 AM | 73 °F | 73 °F | 72 °F | 72 °F | 72.1 °F | 0 watt/m2 | 0 mph | --- | 93 % | 29.968 in Hg | 0 in |
| 09/02/2026 12:15 AM | 73 °F | 73 °F | 72 °F | 72 °F | 71.8 °F | 0 watt/m2 | 0 mph | --- | 93 % | 29.959 in Hg | 0 in |
| 09/02/2026 12:00 AM | 73 °F | 73 °F | 72 °F | 72 °F | 71.6 °F | 0 watt/m2 | 0 mph | --- | 92 % | 29.947 in Hg | 0 in |
| 09/01/2026 11:45 PM | 73 °F | 73 °F | 72 °F | 72 °F | 71.6 °F | 0 watt/m2 | 0 mph | --- | 92 % | 29.938 in Hg | 0 in |
| 09/01/2026 11:30 PM | 72 °F | 72 °F | 72 °F | 72 °F | 71.6 °F | 0 watt/m2 | 0 mph | --- | 92 % | 29.938 in Hg | 0 in |
| 09/01/2026 11:15 PM | 73 °F | 73 °F | 72 °F | 72 °F | 71.6 °F | 0 watt/m2 | 0 mph | --- | 91 % | 29.938 in Hg | 0 in |
| 09/01/2026 11:00 PM | 73 °F | 73 °F | 72 °F | 72 °F | 71.8 °F | 0 watt/m2 | 0 mph | --- | 91 % | 29.93 in Hg | 0 in |
| 09/01/2026 10:45 PM | 73 °F | 73 °F | 72 °F | 73 °F | 72 °F | 0 watt/m2 | 0 mph | --- | 90 % | 29.911 in Hg | 0 in |
| 09/01/2026 10:30 PM | 73 °F | 73 °F | 73 °F | 73 °F | 72.1 °F | 0 watt/m2 | 0 mph | --- | 90 % | 29.907 in Hg | 0 in |
| 09/01/2026 10:15 PM | 73 °F | 73 °F | 73 °F | 73 °F | 72.5 °F | 0 watt/m2 | 0 mph | --- | 89 % | 29.908 in Hg | 0 in |
| 09/01/2026 10:00 PM | 74 °F | 74 °F | 74 °F | 74 °F | 72.8 °F | 0 watt/m2 | 0 mph | --- | 89 % | 29.879 in Hg | 0 in |
| 09/01/2026 09:45 PM | 74 °F | 74 °F | 74 °F | 74 °F | 73.2 °F | 0 watt/m2 | 0 mph | --- | 88 % | 29.89 in Hg | 0.01 in |
| 09/01/2026 09:30 PM | 75 °F | 75 °F | 75 °F | 75 °F | 73.7 °F | 0 watt/m2 | 0 mph | --- | 85 % | 29.895 in Hg | 0.19 in |
| 09/01/2026 09:15 PM | 78 °F | 79 °F | 80 °F | 78 °F | 76 °F | 0 watt/m2 | 9 mph | ESE | 81 % | 29.876 in Hg | 0.45 in |
| 09/01/2026 09:00 PM | 85 °F | 85 °F | 86 °F | 85 °F | 80.5 °F | 0 watt/m2 | 3 mph | SE | 77 % | 29.877 in Hg | 0.04 in |
| 09/01/2026 08:45 PM | 89 °F | 89 °F | 90 °F | 89 °F | 83 °F | 0 watt/m2 | 6 mph | ESE | 74 % | 29.86 in Hg | 0 in |
| 09/01/2026 08:30 PM | 91 °F | 91 °F | 91 °F | 91 °F | 84.1 °F | 0 watt/m2 | 0 mph | --- | 73 % | 29.857 in Hg | 0 in |
| 09/01/2026 08:15 PM | 92 °F | 92 °F | 93 °F | 92 °F | 84.9 °F | 0 watt/m2 | 0 mph | --- | 72 % | 29.842 in Hg | 0 in |
| 09/01/2026 08:00 PM | 93 °F | 94 °F | 94 °F | 93 °F | 85.5 °F | 1 watt/m2 | 0 mph | --- | 70 % | 29.847 in Hg | 0 in |
| 09/01/2026 07:45 PM | 95 °F | 95 °F | 96 °F | 95 °F | 86.1 °F | 12 watt/m2 | 0 mph | --- | 68 % | 29.857 in Hg | 0 in |
| 09/01/2026 07:30 PM | 97 °F | 97 °F | 98 °F | 96 °F | 87 °F | 21 watt/m2 | 0 mph | --- | 66 % | 29.845 in Hg | 0 in |
| 09/01/2026 07:15 PM | 98 °F | 99 °F | 100 °F | 98 °F | 87.6 °F | 50 watt/m2 | 0 mph | --- | 64 % | 29.831 in Hg | 0 in |
| 09/01/2026 07:00 PM | 100 °F | 101 °F | 101 °F | 100 °F | 88 °F | 69 watt/m2 | 0 mph | --- | 62 % | 29.845 in Hg | 0 in |
| 09/01/2026 06:45 PM | 103 °F | 103 °F | 104 °F | 101 °F | 88.4 °F | 90 watt/m2 | 0 mph | --- | 61 % | 29.85 in Hg | 0 in |
| 09/01/2026 06:30 PM | 103 °F | 103 °F | 104 °F | 102 °F | 88.6 °F | 148 watt/m2 | 0 mph | --- | 60 % | 29.85 in Hg | 0 in |
| 09/01/2026 06:15 PM | 104 °F | 104 °F | 105 °F | 103 °F | 88.8 °F | 293 watt/m2 | 0 mph | --- | 59 % | 29.846 in Hg | 0 in |
| 09/01/2026 06:00 PM | 104 °F | 104 °F | 105 °F | 103 °F | 89 °F | 396 watt/m2 | 0 mph | --- | 59 % | 29.851 in Hg | 0 in |
| 09/01/2026 05:45 PM | 104 °F | 104 °F | 105 °F | 103 °F | 89 °F | 310 watt/m2 | 0 mph | --- | 58 % | 29.86 in Hg | 0 in |
| 09/01/2026 05:30 PM | 105 °F | 104 °F | 105 °F | 103 °F | 88.8 °F | 456 watt/m2 | 0 mph | --- | 58 % | 29.849 in Hg | 0 in |
| 09/01/2026 05:15 PM | 103 °F | 103 °F | 104 °F | 102 °F | 88 °F | 396 watt/m2 | 0 mph | --- | 60 % | 29.853 in Hg | 0 in |
| 09/01/2026 05:00 PM | 103 °F | 103 °F | 104 °F | 101 °F | 87.8 °F | 244 watt/m2 | 0 mph | --- | 61 % | 29.86 in Hg | 0 in |
| 09/01/2026 04:45 PM | 103 °F | 103 °F | 105 °F | 102 °F | 87.8 °F | 224 watt/m2 | 0 mph | --- | 59 % | 29.858 in Hg | 0 in |
| 09/01/2026 04:30 PM | 104 °F | 104 °F | 106 °F | 103 °F | 88 °F | 277 watt/m2 | 0 mph | --- | 58 % | 29.86 in Hg | 0 in |
| 09/01/2026 04:15 PM | 105 °F | 105 °F | 107 °F | 104 °F | 88.2 °F | 244 watt/m2 | 0 mph | --- | 57 % | 29.862 in Hg | 0 in |
| 09/01/2026 04:00 PM | 106 °F | 107 °F | 108 °F | 105 °F | 88.6 °F | 530 watt/m2 | 0 mph | --- | 58 % | 29.862 in Hg | 0 in |
| 09/01/2026 03:45 PM | 105 °F | 106 °F | 107 °F | 105 °F | 88.2 °F | 720 watt/m2 | 0 mph | --- | 61 % | 29.861 in Hg | 0 in |
| 09/01/2026 03:30 PM | 104 °F | 105 °F | 105 °F | 103 °F | 87.4 °F | 708 watt/m2 | 0 mph | --- | 63 % | 29.864 in Hg | 0 in |
| 09/01/2026 03:15 PM | 102 °F | 103 °F | 103 °F | 101 °F | 86.1 °F | 717 watt/m2 | 0 mph | --- | 66 % | 29.872 in Hg | 0 in |
| 09/01/2026 03:00 PM | 99 °F | 100 °F | 101 °F | 98 °F | 84.9 °F | 583 watt/m2 | 0 mph | --- | 68 % | 29.877 in Hg | 0 in |
| 09/01/2026 02:45 PM | 98 °F | 98 °F | 99 °F | 97 °F | 84 °F | 504 watt/m2 | 0 mph | --- | 69 % | 29.885 in Hg | 0 in |
| 09/01/2026 02:30 PM | 95 °F | 96 °F | 96 °F | 94 °F | 83 °F | 516 watt/m2 | 0 mph | --- | 72 % | 29.891 in Hg | 0 in |
| 09/01/2026 02:15 PM | 93 °F | 93 °F | 94 °F | 92 °F | 82 °F | 388 watt/m2 | 0 mph | --- | 73 % | 29.892 in Hg | 0 in |
| 09/01/2026 02:00 PM | 91 °F | 92 °F | 91 °F | 90 °F | 81.6 °F | 317 watt/m2 | 0 mph | --- | 76 % | 29.895 in Hg | 0 in |
| 09/01/2026 01:45 PM | 90 °F | 91 °F | 91 °F | 89 °F | 81.6 °F | 318 watt/m2 | 0 mph | --- | 78 % | 29.91 in Hg | 0 in |
| 09/01/2026 01:30 PM | 91 °F | 91 °F | 92 °F | 91 °F | 81.2 °F | 130 watt/m2 | 0 mph | --- | 76 % | 29.923 in Hg | 0 in |
| 09/01/2026 01:15 PM | 92 °F | 92 °F | 93 °F | 91 °F | 81.4 °F | 196 watt/m2 | 0 mph | --- | 75 % | 29.932 in Hg | 0 in |
| 09/01/2026 01:00 PM | 93 °F | 93 °F | 93 °F | 92 °F | 81.2 °F | 224 watt/m2 | 0 mph | --- | 75 % | 29.924 in Hg | 0 in |
| 09/01/2026 12:45 PM | 92 °F | 93 °F | 93 °F | 92 °F | 81.2 °F | 206 watt/m2 | 0 mph | --- | 75 % | 29.923 in Hg | 0 in |
| 09/01/2026 12:30 PM | 93 °F | 93 °F | 94 °F | 92 °F | 81.2 °F | 194 watt/m2 | 0 mph | --- | 75 % | 29.924 in Hg | 0 in |
| 09/01/2026 12:15 PM | 93 °F | 93 °F | 94 °F | 92 °F | 81.2 °F | 259 watt/m2 | 0 mph | --- | 75 % | 29.923 in Hg | 0 in |
| 09/01/2026 12:00 PM | 92 °F | 93 °F | 93 °F | 91 °F | 80.9 °F | 313 watt/m2 | 0 mph | --- | 77 % | 29.924 in Hg | 0 in |
| 09/01/2026 11:45 AM | 91 °F | 92 °F | 92 °F | 90 °F | 80.1 °F | 291 watt/m2 | 0 mph | --- | 78 % | 29.924 in Hg | 0 in |
| 09/01/2026 11:30 AM | 90 °F | 90 °F | 91 °F | 89 °F | 79.6 °F | 186 watt/m2 | 0 mph | --- | 80 % | 29.923 in Hg | 0 in |
| 09/01/2026 11:15 AM | 90 °F | 91 °F | 91 °F | 89 °F | 79 °F | 305 watt/m2 | 0 mph | --- | 82 % | 29.923 in Hg | 0 in |
| 09/01/2026 11:00 AM | 88 °F | 89 °F | 89 °F | 87 °F | 77.9 °F | 389 watt/m2 | 0 mph | --- | 85 % | 29.92 in Hg | 0 in |
| 09/01/2026 10:45 AM | 85 °F | 85 °F | 85 °F | 84 °F | 76.8 °F | 371 watt/m2 | 0 mph | --- | 87 % | 29.923 in Hg | 0 in |
| 09/01/2026 10:30 AM | 81 °F | 82 °F | 82 °F | 81 °F | 76.1 °F | 395 watt/m2 | 0 mph | --- | 90 % | 29.922 in Hg | 0 in |
| 09/01/2026 10:15 AM | 78 °F | 78 °F | 78 °F | 77 °F | 74.9 °F | 179 watt/m2 | 0 mph | --- | 92 % | 29.924 in Hg | 0 in |
| 09/01/2026 10:00 AM | 76 °F | 76 °F | 76 °F | 76 °F | 74.4 °F | 150 watt/m2 | 0 mph | --- | 92 % | 29.923 in Hg | 0 in |
| 09/01/2026 09:45 AM | 75 °F | 75 °F | 75 °F | 75 °F | 74.2 °F | 106 watt/m2 | 0 mph | --- | 92 % | 29.927 in Hg | 0 in |
| 09/01/2026 09:30 AM | 75 °F | 75 °F | 74 °F | 74 °F | 73.9 °F | 91 watt/m2 | 0 mph | --- | 92 % | 29.926 in Hg | 0 in |
| 09/01/2026 09:15 AM | 74 °F | 74 °F | 74 °F | 74 °F | 73.5 °F | 55 watt/m2 | 0 mph | --- | 92 % | 29.93 in Hg | 0 in |
| 09/01/2026 09:00 AM | 74 °F | 73 °F | 73 °F | 73 °F | 73.3 °F | 32 watt/m2 | 0 mph | --- | 92 % | 29.938 in Hg | 0 in |
| 09/01/2026 08:45 AM | 73 °F | 73 °F | 73 °F | 73 °F | 73.2 °F | 30 watt/m2 | 0 mph | --- | 92 % | 29.937 in Hg | 0 in |
| 09/01/2026 08:30 AM | 73 °F | 73 °F | 73 °F | 73 °F | 73 °F | 28 watt/m2 | 0 mph | --- | 92 % | 29.931 in Hg | 0 in |
| 09/01/2026 08:15 AM | 73 °F | 72 °F | 72 °F | 72 °F | 72.8 °F | 20 watt/m2 | 0 mph | --- | 92 % | 29.932 in Hg | 0 in |
| 09/01/2026 08:00 AM | 72 °F | 72 °F | 72 °F | 72 °F | 72.7 °F | 16 watt/m2 | 0 mph | --- | 92 % | 29.938 in Hg | 0 in |
| 09/01/2026 07:45 AM | 72 °F | 72 °F | 72 °F | 72 °F | 72.7 °F | 2 watt/m2 | 0 mph | --- | 92 % | 29.929 in Hg | 0 in |
| 09/01/2026 07:30 AM | 72 °F | 72 °F | 72 °F | 72 °F | 72.5 °F | 0 watt/m2 | 0 mph | --- | 92 % | 29.935 in Hg | 0 in |
| 09/01/2026 07:15 AM | 72 °F | 72 °F | 72 °F | 72 °F | 72.5 °F | 0 watt/m2 | 0 mph | --- | 92 % | 29.937 in Hg | 0 in |
| 09/01/2026 07:00 AM | 72 °F | 72 °F | 72 °F | 72 °F | 72.3 °F | 0 watt/m2 | 0 mph | --- | 91 % | 29.928 in Hg | 0 in |
| 09/01/2026 06:45 AM | 72 °F | 72 °F | 72 °F | 72 °F | 72.1 °F | 0 watt/m2 | 0 mph | --- | 91 % | 29.927 in Hg | 0 in |
| 09/01/2026 06:30 AM | 72 °F | 72 °F | 72 °F | 72 °F | 72.1 °F | 0 watt/m2 | 0 mph | --- | 91 % | 29.931 in Hg | 0 in |
| 09/01/2026 06:15 AM | 72 °F | 72 °F | 72 °F | 72 °F | 72 °F | 0 watt/m2 | 0 mph | --- | 91 % | 29.936 in Hg | 0 in |
| 09/01/2026 06:00 AM | 72 °F | 72 °F | 71 °F | 72 °F | 72 °F | 0 watt/m2 | 0 mph | --- | 90 % | 29.939 in Hg | 0 in |
| 09/01/2026 05:45 AM | 72 °F | 72 °F | 71 °F | 71 °F | 71.8 °F | 0 watt/m2 | 0 mph | --- | 90 % | 29.939 in Hg | 0 in |
| 09/01/2026 05:30 AM | 72 °F | 72 °F | 71 °F | 71 °F | 71.8 °F | 0 watt/m2 | 0 mph | --- | 90 % | 29.94 in Hg | 0 in |
| 09/01/2026 05:15 AM | 72 °F | 72 °F | 71 °F | 71 °F | 71.6 °F | 0 watt/m2 | 0 mph | --- | 90 % | 29.94 in Hg | 0 in |
| 09/01/2026 05:00 AM | 72 °F | 71 °F | 71 °F | 71 °F | 71.6 °F | 0 watt/m2 | 0 mph | --- | 90 % | 29.94 in Hg | 0 in |
| 09/01/2026 04:45 AM | 72 °F | 71 °F | 71 °F | 71 °F | 71.6 °F | 0 watt/m2 | 0 mph | --- | 90 % | 29.94 in Hg | 0 in |
| 09/01/2026 04:30 AM | 72 °F | 71 °F | 71 °F | 71 °F | 71.5 °F | 0 watt/m2 | 0 mph | --- | 89 % | 29.942 in Hg | 0 in |
| 09/01/2026 04:15 AM | 72 °F | 71 °F | 71 °F | 71 °F | 71.5 °F | 0 watt/m2 | 0 mph | --- | 89 % | 29.943 in Hg | 0 in |
| 09/01/2026 04:00 AM | 72 °F | 71 °F | 71 °F | 71 °F | 71.3 °F | 0 watt/m2 | 0 mph | --- | 89 % | 29.949 in Hg | 0 in |
| 09/01/2026 03:45 AM | 72 °F | 71 °F | 71 °F | 71 °F | 71.3 °F | 0 watt/m2 | 0 mph | --- | 88 % | 29.951 in Hg | 0 in |
| 09/01/2026 03:30 AM | 72 °F | 72 °F | 71 °F | 71 °F | 71.3 °F | 0 watt/m2 | 0 mph | --- | 88 % | 29.955 in Hg | 0 in |
| 09/01/2026 03:15 AM | 72 °F | 72 °F | 72 °F | 71 °F | 71.1 °F | 0 watt/m2 | 0 mph | --- | 88 % | 29.957 in Hg | 0 in |
| 09/01/2026 03:00 AM | 72 °F | 72 °F | 72 °F | 72 °F | 71.1 °F | 0 watt/m2 | 0 mph | --- | 87 % | 29.968 in Hg | 0 in |
| 09/01/2026 02:45 AM | 72 °F | 72 °F | 72 °F | 72 °F | 71.1 °F | 0 watt/m2 | 0 mph | --- | 87 % | 29.97 in Hg | 0 in |
| 09/01/2026 02:30 AM | 72 °F | 72 °F | 72 °F | 72 °F | 70.9 °F | 0 watt/m2 | 0 mph | --- | 87 % | 29.971 in Hg | 0 in |
| 09/01/2026 02:15 AM | 72 °F | 72 °F | 72 °F | 72 °F | 70.9 °F | 0 watt/m2 | 0 mph | --- | 87 % | 29.983 in Hg | 0 in |
| 09/01/2026 02:00 AM | 72 °F | 72 °F | 72 °F | 72 °F | 70.9 °F | 0 watt/m2 | 0 mph | --- | 86 % | 29.975 in Hg | 0 in |
| 09/01/2026 01:45 AM | 72 °F | 72 °F | 72 °F | 72 °F | 70.9 °F | 0 watt/m2 | 0 mph | --- | 86 % | 29.977 in Hg | 0 in |
| 09/01/2026 01:30 AM | 72 °F | 72 °F | 72 °F | 72 °F | 70.9 °F | 0 watt/m2 | 0 mph | --- | 85 % | 29.972 in Hg | 0 in |